STARLINK-36448, 67354

Orbit data source: Space-Track

STARLINK-36448, 67354 is a payload satellite owned by SpaceX/Seattle (US) in LEO that was launched on Fri, 09 Jan 2026 UTC via an FALCON 9 launch vehicle from the Air Force Eastern Test Range (AFETR). Payload-class satellites include a variety of spacecraft equipped with specific instruments for various scientific and technological missions. These include communications satellites like Starlink; space stations such as the ISS; scientific satellites like the Hubble; Earth observation satellites from companies like Planet Labs, Umbra, and HawkEye 360; GPS; miniature CubeSats for education and research; and military/defense satellites.

Loading next visibility...
Identifier
67354, 2026-003W
Orbit
LEO
Country
Flag of USUS
Related business
Manufacturer
SpaceX/Seattle
Mission
Operational Commercial Communications
Bus & Motor
STARLINK V2MO, Unknown motor
Mass
575 kg wet, ~530 kg dry
Launch date (UTC)
2026-01-09 (5 months ago)
Launch vehicle
FALCON 9
Launch site
Air Force Eastern Test Range (AFETR)
Object type
Payload
Rocket body
Debris
Shape & HBR
Box + 2 Pan, 17.7 m
Radar Cross Section
36.964 m², Large (>1 m²)

Expand to show TLE details & history
Last TLE update: 2 days ago

TLE from 2 days ago
0 STARLINK-36448
1 67354U 26003W   26169.97643277  .00012744  00000-0  47167-3 0  9991
2 67354  43.0024  15.1163 0001501 271.0901  88.9779 15.27590628 24317
Epoch: 2026-06-18T23:26Z
TLE epoch observation values (Epoch: 2026-06-18T23:26:03.791Z)
Latitude
0.00001°
Longitude
116.38848°
Altitude
482.775 km
Speed
7.626 km/s
True Right ascension
01h 00m 27s
True Declination
0° 00' 00"
Sunlit
Object was in daylight at epoch
Visualization orbit readout
Latitude
Unknown
Longitude
Unknown
Altitude
Unknown
Speed
Unknown
Apparent Right ascension
Unknown
Apparent Declination
Unknown
Sunlit
N/A
Visualization observer readout
Local Sidereal Time
08:41:33
Azimuth
Unknown
Elevation
Unknown
Doppler factor
Unknown
Orbital elements
Apogee altitude
485.992 km
Perigee altitude
483.932 km
Semi-major axis
6,863.099 km
Eccentricity
0.00015
Inclination
43.0024°
RAAN
15.1163°
Arg. of periapsis
271.0901°
True anomaly
88.9951°
Mean anomaly
88.9779°
Eccentric anomaly
88.9865°
Mean motion
3.81736 °/min
Orbital period
94.31 mins
BSTAR
0.00047167
Loading maneuver chart data...
Computing Atmospheric mass density...
Loading historical data...
Loading historical data...
Loading historical data...
Loading historical data...
Loading historical data...
Loading historical data...
Loading historical data...

Documentation

Showing up to 5 results
|